GEFSNE_500_meanwind_000.txt.gz
Wind_Speed
40 40 39 37 37 36 31 29 29 26 23 22 25 24 19 19 22 22 28 35 35 35 33 32 31 32 33 35 35 36 37 35 35 34 38 37 33 33
40 41 39 37 38 34 31 29 26 21 18 19 19 20 18 20 22 23 25 24 27 31 35 36 34 31 31 35 36 37 38 38 39 40 40 38 36 36
38 38 37 35 34 32 29 29 28 24 21 17 17 19 18 21 24 22 22 20 19 20 23 23 22 28 32 33 34 36 38 38 39 41 41 41 40 41
31 31 29 28 30 29 29 29 27 26 23 23 20 21 22 24 22 21 22 23 22 24 24 25 29 31 33 34 36 37 38 40 40 41 42 44 44 44
25 25 24 25 25 24 26 23 22 20 19 21 23 20 18 17 17 18 18 18 20 22 22 24 26 28 30 32 34 36 38 39 42 43 45 47 47 48
23 22 23 24 18 22 20 17 19 15 16 18 16 13 14 14 15 15 17 21 24 25 25 26 26 27 27 29 32 34 36 37 40 42 43 45 46 48
23 21 25 26 21 15 15 14 12 10 11 14 15 13 14 14 15 16 17 18 20 22 24 26 27 28 30 31 33 34 36 38 41 44 45 46 47 48
20 20 21 21 23 19 15 11 11 14 16 16 14 13 13 14 14 14 15 16 18 22 25 27 28 29 31 33 36 38 40 42 45 47 49 51 52 54
21 21 20 19 18 16 12 12 13 14 14 14 13 11 10 10 11 13 15 17 18 20 22 25 27 29 31 33 36 37 40 42 44 46 48 50 51 54
19 18 17 16 16 13 11 13 14 14 12 11 10 8 8 9 10 11 13 15 18 21 24 27 29 29 32 34 37 39 42 45 47 49 52 54 56 56
19 16 15 15 15 14 14 14 13 12 12 11 9 9 8 9 10 12 14 15 18 21 23 25 26 27 28 30 33 36 39 42 43 45 48 51 55 58
21 17 16 16 15 14 14 13 13 14 13 11 11 9 9 9 9 11 12 13 14 15 17 19 19 20 21 24 27 30 31 32 32 34 38 43 48 53
18 17 16 18 18 17 15 14 14 14 14 13 12 9 8 6 5 7 10 13 14 15 16 17 17 19 21 25 27 29 29 31 32 34 35 37 39 41
18 17 18 21 21 16 14 14 15 15 15 14 11 10 7 4 5 7 9 11 13 15 17 19 22 24 25 27 29 31 32 32 32 33 34 34 35 37
19 20 20 21 19 15 16 16 16 16 15 13 11 8 6 6 7 8 7 9 13 16 18 21 25 26 27 28 30 32 34 35 32 29 29 30 31 33
20 20 21 21 19 14 15 16 16 16 16 13 9 8 7 7 8 7 6 7 12 17 20 21 21 23 25 27 31 33 32 31 31 29 27 28 30 30
21 19 18 17 17 17 17 16 15 15 14 11 10 9 9 8 8 9 6 7 12 17 17 18 22 24 25 28 33 32 27 24 23 25 26 27 28 30
21 17 15 16 16 16 15 14 13 13 13 13 12 11 10 8 9 9 8 9 13 14 16 21 23 24 26 29 32 30 24 21 19 17 19 23 27 29
22 18 17 18 17 15 14 13 13 14 15 14 13 11 9 8 8 8 8 11 12 12 15 20 24 25 25 27 30 31 27 23 21 19 17 19 22 25
22 20 18 18 17 15 14 14 15 15 15 15 14 12 11 10 10 10 10 12 13 14 17 20 24 27 27 27 28 29 29 25 21 21 21 20 19 20
21 20 19 19 18 16 15 15 15 15 15 16 15 15 14 13 13 14 16 17 17 19 21 22 24 27 29 27 27 28 29 30 27 23 22 21 21 21
19 18 17 16 16 15 15 16 15 15 17 18 18 18 18 19 19 20 22 24 25 25 24 24 24 25 27 28 27 27 27 29 29 28 27 24 22 22
16 14 13 14 14 14 14 15 17 17 18 20 20 19 20 21 22 23 25 25 25 25 25 24 24 24 25 26 27 27 27 27 28 30 29 29 27 25

GEFSNE_500_meanwind_006.txt.gz
Wind_Speed
29 30 33 35 36 37 37 35 35 34 33 34 35 36 36 36 35 34 34 33 32 31 29 28 27 29 34 39 41 42 42 43 42 40 38 38 38 39
27 28 29 32 33 34 35 35 35 34 34 34 36 36 36 36 34 33 31 29 27 26 25 24 23 24 29 37 42 44 43 42 42 40 40 40 40 39
27 26 27 27 29 31 33 34 35 35 36 36 38 38 37 35 33 32 31 28 27 26 24 23 23 23 25 30 37 41 42 41 41 40 40 42 44 44
26 25 24 25 26 28 30 32 33 34 35 37 39 38 36 33 32 31 30 29 28 26 25 23 23 23 24 26 31 39 41 42 42 42 42 44 44 43
26 24 21 20 21 23 25 27 29 31 33 36 37 36 33 29 28 28 27 27 26 25 24 23 22 22 23 23 24 28 34 39 41 40 40 41 42 42
25 22 19 16 16 17 18 20 24 28 31 34 34 34 31 28 26 26 26 25 23 22 20 19 18 17 17 18 19 21 23 26 30 33 36 38 41 42
24 21 17 13 12 13 14 15 19 23 27 30 32 31 28 27 26 24 22 21 18 16 16 16 16 17 18 20 21 22 24 26 28 30 32 35 37 40
24 21 18 14 12 12 13 14 16 17 20 24 27 27 26 25 23 21 19 18 16 15 15 15 16 18 19 21 22 23 25 26 28 30 33 35 37 40
25 22 19 15 14 13 14 16 19 21 23 24 25 25 24 22 20 19 18 17 15 15 15 15 16 17 18 19 21 22 24 26 28 31 33 35 37 40
26 23 19 16 14 15 16 18 20 24 27 26 24 22 20 19 19 18 17 15 14 13 14 14 14 15 16 18 20 21 23 25 27 30 32 35 38 41
28 24 21 17 14 15 17 18 20 22 25 25 23 21 20 19 18 17 15 13 13 13 13 13 13 13 14 16 18 20 22 24 27 30 33 36 39 43
30 26 23 19 16 16 17 18 20 22 23 23 22 21 20 19 16 14 13 12 11 10 10 10 10 11 12 15 16 18 20 23 26 29 33 37 40 44
31 28 24 21 19 19 20 20 21 22 23 22 21 20 18 16 14 13 12 10 8 9 9 9 9 10 11 13 14 17 20 23 26 29 32 35 39 42
31 29 25 23 23 22 23 24 24 24 23 22 20 19 17 15 15 14 11 9 8 8 9 9 9 10 12 13 14 17 20 23 26 28 31 33 34 37
30 28 25 24 24 24 26 26 25 23 22 21 19 17 16 16 15 14 11 10 10 11 11 11 11 11 12 13 15 18 21 23 26 29 30 31 32 33
29 27 25 24 24 25 25 24 22 19 19 19 18 17 16 14 14 13 13 13 13 13 13 13 12 12 12 13 15 18 20 23 26 28 30 31 31 32
28 26 24 24 24 23 23 20 18 19 19 18 17 15 13 12 13 14 14 14 15 15 15 14 14 13 13 13 15 18 21 23 24 26 27 28 29 29
27 26 25 25 24 23 21 19 20 19 18 16 15 14 13 13 13 15 16 17 17 17 16 16 16 17 18 18 19 21 22 23 24 25 26 27 28 29
27 27 27 27 26 25 22 21 20 18 16 16 16 16 15 15 15 16 18 19 20 19 18 17 18 19 21 21 22 22 22 23 25 25 26 28 30 31
28 29 28 28 28 26 24 23 20 18 17 17 17 17 17 16 17 19 21 22 23 22 21 21 21 23 25 25 23 21 21 21 22 24 26 28 31 34
31 30 28 27 27 26 25 22 20 18 17 18 18 17 17 17 19 21 23 24 25 26 26 27 27 28 28 26 22 20 19 19 21 23 26 28 31 34
34 32 28 26 26 25 23 21 19 18 18 18 18 18 18 18 20 21 24 25 26 26 27 27 27 26 25 23 21 20 20 21 22 24 26 29 32 35
33 31 28 26 25 24 22 21 20 19 19 19 19 19 19 19 20 21 22 22 23 24 25 25 24 23 23 22 21 21 22 24 25 27 29 31 35 39

GEFSNE_500_meanwind_012.txt.gz
Wind_Speed
28 27 26 26 27 27 26 26 26 27 29 30 30 30 29 28 28 26 25 26 27 28 29 30 31 32 32 32 31 31 31 32 33 34 33 34 37 42
30 29 27 26 26 26 26 25 25 25 27 30 30 30 30 29 28 27 27 26 26 28 29 29 30 30 30 30 29 28 28 29 30 30 31 34 35 38
30 29 27 25 25 26 25 24 23 24 25 28 29 30 30 29 29 28 27 27 27 28 28 28 29 28 28 26 26 25 25 25 25 26 28 31 36 41
29 28 27 25 25 25 24 22 22 22 24 26 28 29 29 30 29 29 29 29 29 28 28 28 27 26 25 24 24 23 23 23 24 25 25 28 33 39
30 28 26 25 24 24 23 22 21 21 22 24 26 28 30 30 30 30 31 31 30 28 27 27 26 25 24 24 23 23 23 23 23 23 23 24 29 34
31 28 26 25 24 23 22 21 20 19 20 22 26 29 30 30 30 31 31 31 30 29 28 27 26 25 24 23 22 21 20 19 18 17 17 17 20 25
33 29 27 25 24 23 21 21 20 18 19 21 25 28 30 31 31 30 30 30 29 28 27 25 24 22 21 19 18 16 15 14 14 13 13 14 15 16
36 33 30 27 25 24 22 21 20 19 19 19 21 24 28 31 32 31 30 29 28 26 24 22 20 18 16 16 15 15 14 14 14 15 16 16 18 19
42 37 33 30 27 25 23 22 20 18 17 17 18 20 23 27 29 28 27 27 26 24 22 19 17 15 14 14 14 14 15 15 15 16 16 17 18 20
44 39 35 32 30 27 24 22 20 18 17 17 17 18 19 20 22 24 25 23 22 20 18 16 14 13 13 13 13 13 13 13 14 14 15 16 17 18
45 40 37 35 32 29 27 24 21 20 19 19 18 18 19 21 23 24 23 23 20 18 16 14 13 12 12 12 11 11 11 11 12 12 13 14 16 17
46 42 39 36 34 32 30 26 23 21 20 20 20 19 20 21 22 23 21 19 17 15 13 12 11 11 10 10 9 9 9 10 10 11 12 14 16 18
49 45 41 39 36 35 33 29 26 23 21 20 20 19 18 19 21 21 19 17 15 14 12 11 11 10 9 9 8 8 9 10 11 13 14 16 17 20
50 48 45 42 40 37 35 32 28 25 22 20 19 18 17 18 20 19 17 15 14 13 13 12 10 10 9 8 8 9 10 12 14 15 17 18 20 21
49 48 46 44 42 39 37 34 30 27 24 21 19 18 18 18 18 17 16 15 15 14 13 11 10 10 9 9 10 11 13 15 17 19 20 21 22 23
47 47 46 46 43 40 37 34 31 27 24 22 20 19 18 18 18 17 17 16 16 15 14 12 11 11 11 12 14 16 18 19 21 23 24 25 26 26
47 46 45 43 40 38 36 33 30 27 25 23 21 20 19 19 19 18 18 18 17 16 14 13 13 13 15 17 18 20 22 24 25 26 27 28 28 28
46 46 43 39 37 35 33 31 29 27 25 23 22 21 21 21 20 19 19 18 17 16 15 14 15 16 18 20 22 23 25 26 27 28 30 30 30 29
45 43 41 38 35 33 31 29 27 25 24 23 23 23 23 22 20 19 19 18 17 16 15 16 17 19 21 23 24 25 27 28 30 31 31 31 31 30
43 41 39 36 33 31 29 27 26 25 25 24 25 24 23 22 20 19 18 17 16 15 16 17 19 21 23 24 26 28 30 31 32 32 32 32 32 32
38 39 37 34 31 30 28 28 27 27 26 25 24 23 22 21 20 18 17 15 15 15 16 19 21 23 25 27 28 29 31 32 31 31 32 32 32 33
35 35 33 31 30 30 29 29 28 27 26 25 23 22 21 21 19 17 16 15 15 16 18 21 23 24 25 26 27 27 27 28 29 30 31 32 33 33
31 29 29 30 31 31 30 29 28 27 25 22 21 20 20 19 17 16 15 15 16 18 20 21 23 23 24 25 26 27 27 27 27 28 29 30 31 31

GEFSNE_500_meanwind_018.txt.gz
Wind_Speed
33 32 31 30 29 28 27 25 23 22 24 24 22 22 25 27 28 28 27 25 24 22 21 21 21 21 23 24 26 27 27 27 27 27 27 28 29 30
35 34 33 32 31 30 28 26 24 22 23 25 23 21 23 25 27 27 26 24 24 21 21 22 22 23 25 26 27 28 28 28 28 27 28 28 28 29
39 37 35 33 32 31 29 27 25 23 22 24 23 21 22 24 27 27 27 24 23 22 22 22 23 24 25 26 26 27 27 27 27 27 27 28 28 29
44 41 38 36 34 32 30 28 26 24 22 22 22 20 20 23 26 26 26 25 25 24 24 23 24 24 24 24 24 25 25 26 26 26 27 27 28 28
49 46 42 39 36 34 31 29 26 24 22 21 21 20 19 21 24 26 27 26 25 25 25 24 23 23 23 23 23 23 23 24 24 25 25 25 25 26
53 50 46 43 39 36 33 30 27 24 22 21 20 18 17 19 22 24 25 25 25 25 25 25 24 23 23 23 23 23 22 22 22 23 23 24 24 24
54 52 49 46 42 38 35 31 29 26 23 20 19 17 15 16 18 21 22 23 23 24 24 24 24 23 23 22 22 22 22 22 22 22 22 22 21 21
55 53 51 48 45 41 37 34 31 27 24 21 18 16 14 14 16 19 21 22 22 22 22 23 23 23 23 22 21 21 22 22 22 21 20 19 18 18
57 54 52 49 47 43 39 36 32 29 25 21 18 16 14 13 15 17 18 20 21 22 22 22 22 22 22 22 22 22 21 21 20 19 18 17 16 16
61 56 53 51 48 45 41 38 34 30 26 22 19 16 14 13 14 16 17 18 19 20 21 22 23 23 22 22 22 21 20 19 18 17 16 16 16 15
64 59 55 52 50 47 44 40 37 32 27 23 20 17 15 14 14 15 16 16 18 19 19 20 20 21 22 22 21 20 19 18 17 17 16 16 15 15
62 61 57 53 51 48 46 43 39 34 29 25 22 18 16 15 15 15 15 16 16 16 16 17 18 20 21 22 21 19 18 17 16 15 15 14 14 14
57 58 56 53 50 48 47 45 41 36 31 26 22 19 17 16 16 15 15 14 15 15 16 18 18 19 20 19 19 17 16 15 14 14 14 13 13 14
51 53 52 51 49 48 47 46 43 38 33 28 24 20 18 16 15 14 14 14 14 15 16 18 19 20 19 18 17 16 16 15 14 13 13 14 14 15
45 51 51 49 49 48 47 45 42 38 34 29 25 21 19 16 15 14 15 15 16 16 17 17 18 18 18 17 17 17 16 15 14 14 14 16 17 19
41 49 48 47 46 47 47 45 42 38 34 30 26 22 19 17 16 16 16 17 18 18 19 19 19 19 18 18 18 17 16 16 16 16 18 20 21 23
38 47 48 47 46 46 46 44 41 38 34 30 26 23 20 19 18 18 18 18 18 19 20 21 21 20 19 19 18 18 17 17 19 20 22 24 26 27
35 43 48 47 47 46 45 43 40 37 33 30 27 24 22 21 20 20 20 20 21 21 22 23 23 22 21 20 20 19 19 21 22 24 25 27 29 30
35 42 46 48 46 46 45 43 40 36 33 31 28 25 24 23 22 22 22 22 23 24 24 24 24 23 22 22 21 21 22 23 25 26 28 29 30 31
33 42 44 46 45 44 43 41 39 36 34 31 28 26 25 24 24 24 25 25 25 25 25 25 24 24 23 22 22 22 24 25 26 28 29 30 30 30
31 40 42 43 44 43 41 39 37 35 33 31 29 27 26 26 26 27 27 26 25 25 25 25 24 24 23 22 23 23 25 26 27 28 28 28 28 28
30 36 39 40 40 39 39 37 36 34 32 30 29 28 27 28 28 28 27 26 25 25 25 24 24 23 23 23 24 25 26 26 27 27 27 27 27 28
30 34 35 37 37 37 36 35 33 32 31 30 29 28 28 29 29 28 27 25 25 24 23 23 23 23 23 24 25 26 26 27 27 27 27 27 28 29

GEFSNE_500_meanwind_024.txt.gz
Wind_Speed
44 43 42 40 39 36 34 32 31 30 30 28 25 24 24 23 23 22 22 23 24 26 27 28 29 30 30 31 31 32 32 33 35 35 35 35 33 31
49 47 45 44 42 40 37 35 32 31 31 30 28 26 25 24 23 23 22 22 23 25 25 27 28 29 29 28 29 29 29 30 32 33 33 33 32 32
54 52 49 48 46 43 40 37 34 32 31 31 29 27 25 24 24 23 22 22 23 24 25 27 27 28 26 25 24 25 27 27 27 28 28 29 30 31
60 57 54 52 50 46 43 39 36 33 32 31 30 28 26 24 23 23 22 21 22 23 25 26 26 27 25 25 24 23 25 25 24 24 26 28 28 29
66 63 59 57 54 50 46 42 39 35 33 31 30 28 26 24 23 22 21 21 21 23 24 25 26 27 26 24 24 23 22 22 23 24 25 26 27 27
71 68 65 61 58 55 51 47 42 38 34 32 30 29 26 24 23 22 21 20 21 23 24 25 25 25 24 23 23 22 22 22 22 23 25 26 26 26
74 71 69 65 61 59 56 51 47 42 37 34 32 29 26 24 23 21 21 20 21 23 24 25 25 25 24 23 23 23 23 23 23 24 25 25 25 25
75 74 72 67 64 60 57 55 51 46 40 37 33 30 28 25 23 21 20 20 21 22 24 26 26 26 25 25 24 24 23 23 24 24 25 25 24 23
70 73 73 70 66 61 58 56 53 49 44 39 35 32 29 26 24 21 20 19 20 23 25 26 26 26 25 25 25 25 25 24 24 24 24 23 22 22
56 62 67 68 66 63 59 57 53 50 46 42 37 34 31 28 25 22 20 19 20 21 23 24 25 25 25 25 25 25 24 24 24 23 22 22 22 21
43 50 57 62 64 63 59 56 53 50 47 44 40 36 32 29 26 22 20 19 20 21 22 23 24 25 25 26 26 26 25 24 23 23 22 21 20 20
36 41 47 53 58 60 59 56 53 50 47 44 41 37 33 29 26 23 21 20 20 20 21 22 23 24 24 25 25 25 24 24 23 22 21 20 19 19
33 35 40 45 51 56 57 57 54 51 49 45 42 38 35 30 27 24 22 21 21 21 21 22 22 22 22 23 23 23 22 22 22 21 20 19 18 17
32 32 35 40 45 51 55 55 54 52 48 46 42 39 35 31 28 26 24 23 22 21 21 22 21 21 21 21 20 20 19 19 19 18 18 17 16 15
30 30 31 35 42 48 52 54 53 50 48 45 42 39 36 33 30 28 25 23 23 22 21 21 21 19 19 18 18 18 17 17 17 17 17 17 16 15
29 28 29 33 39 46 51 53 52 49 47 44 42 40 36 33 30 28 26 24 23 23 22 21 20 19 18 17 17 17 18 17 17 18 17 17 17 16
28 27 28 31 39 46 50 50 50 49 46 45 42 39 36 33 30 28 26 25 24 23 22 21 20 19 17 17 17 18 18 18 18 18 18 18 17 17
25 25 27 32 41 48 50 49 48 47 45 44 42 39 36 33 31 28 26 25 24 24 22 21 20 19 19 18 19 19 20 20 20 19 19 19 19 19
22 23 27 36 43 49 50 49 47 45 44 43 41 39 36 33 31 29 27 26 25 23 22 21 21 21 21 21 21 21 21 21 21 21 21 21 21 22
20 22 30 39 44 50 52 49 46 44 43 41 39 38 36 34 32 30 28 26 25 24 23 23 23 22 22 22 22 22 23 23 22 22 22 23 24 25
18 21 29 37 44 47 48 47 45 43 41 40 39 38 36 35 33 31 29 27 26 25 24 24 24 23 23 23 24 24 24 24 24 24 24 25 26 28
17 19 27 35 41 43 45 47 45 43 41 40 39 37 36 34 32 31 29 28 27 26 26 25 24 25 25 25 25 25 25 25 25 26 27 28 29 31
17 19 25 31 36 41 44 44 43 41 39 39 37 35 34 32 31 30 28 28 27 26 26 26 26 26 26 26 26 26 26 26 27 28 29 31 32 33

GEFSNE_500_meanwind_030.txt.gz
Wind_Speed
49 47 46 46 45 44 43 41 40 38 36 34 32 30 27 24 22 20 19 18 19 19 19 21 23 24 26 28 30 31 32 32 33 35 36 37 38 40
54 52 50 49 48 48 46 45 43 41 39 37 35 33 30 27 24 22 21 20 20 20 20 21 23 25 26 28 29 30 31 32 33 33 34 34 36 37
61 58 55 54 52 51 50 48 46 45 43 41 38 35 32 29 26 24 23 22 22 21 21 22 23 25 26 27 28 29 30 32 33 33 34 35 35 35
66 64 61 58 57 55 53 51 49 48 46 44 41 38 35 32 29 26 24 23 23 22 22 23 23 24 26 27 28 28 29 30 31 32 32 34 34 34
70 69 67 64 60 59 57 54 52 51 49 47 44 40 37 34 31 29 26 25 24 23 23 23 23 24 25 27 27 28 28 28 28 29 29 30 30 30
72 72 71 70 67 62 60 58 55 53 51 49 46 43 40 37 34 31 28 26 25 24 23 23 23 24 25 26 27 27 26 26 25 24 24 24 25 26
74 74 75 74 73 69 64 61 60 57 54 51 49 46 42 39 36 33 30 28 26 25 24 23 24 24 25 25 25 25 24 24 24 23 22 22 23 23
74 75 76 76 75 74 70 65 62 60 56 53 50 48 45 42 38 35 32 29 27 25 25 24 24 24 24 24 24 23 23 23 23 22 21 20 20 20
69 73 76 77 76 75 75 71 67 63 61 58 55 50 47 44 41 38 34 31 28 27 25 24 24 24 24 24 23 22 21 21 20 20 19 19 19 18
61 65 70 74 74 75 75 75 72 68 62 58 56 53 50 47 44 40 36 32 30 27 26 25 24 24 24 24 24 23 22 21 20 20 19 19 19 19
52 55 60 66 70 72 73 73 72 70 67 61 56 54 53 50 46 42 37 34 30 28 26 25 24 23 23 24 24 23 22 22 21 20 20 20 20 20
45 46 51 56 60 64 68 70 70 69 67 64 59 56 56 53 48 43 40 36 32 29 27 26 25 24 23 23 23 23 23 22 22 22 22 22 21 20
40 41 42 46 51 56 60 64 66 67 66 64 62 58 57 55 50 44 40 37 33 30 28 27 25 24 23 22 22 23 23 23 23 23 23 23 22 22
36 36 37 37 41 47 52 56 59 63 64 64 62 59 57 54 51 46 41 37 34 31 29 28 27 26 24 23 23 24 24 24 24 24 24 24 24 23
33 33 33 33 35 39 43 48 52 57 58 59 59 56 55 52 50 46 43 39 35 32 30 28 28 27 25 25 24 24 25 25 25 25 25 24 24 24
28 29 30 31 32 34 37 41 45 50 52 53 55 55 52 50 50 47 43 40 36 33 31 30 29 28 26 25 25 24 24 24 25 25 25 25 24 23
25 26 28 29 30 31 32 35 40 44 49 50 51 52 51 48 46 46 43 41 38 35 33 31 29 28 26 25 24 24 24 24 23 23 23 23 22 21
23 25 26 27 28 30 31 32 36 41 45 47 48 49 48 47 46 45 44 42 39 36 34 32 31 28 27 25 24 23 23 23 22 21 22 22 22 22
22 24 25 26 27 28 30 32 34 39 44 48 48 47 48 47 45 44 43 41 39 37 35 33 32 29 27 26 24 23 23 22 22 22 22 22 22 23
20 22 24 26 27 28 31 32 34 38 43 48 48 49 49 48 45 43 42 40 38 37 36 34 32 31 29 27 25 24 23 23 23 22 22 23 23 24
19 20 22 25 27 29 31 33 35 38 43 48 48 49 48 48 46 43 41 40 38 37 36 35 33 31 29 27 25 24 24 23 23 23 24 24 25 26
17 19 21 23 25 27 30 33 35 39 43 47 48 47 46 45 44 43 41 39 38 36 35 34 33 30 29 28 27 26 25 24 24 24 25 25 26 27
16 16 17 20 22 25 29 34 38 41 44 47 46 45 44 44 42 41 40 38 36 35 34 32 31 30 29 28 28 27 26 25 25 25 26 27 28 29

GEFSNE_500_meanwind_036.txt.gz
Wind_Speed
47 47 45 44 43 41 40 40 38 37 36 35 34 33 32 31 30 27 25 21 19 16 14 13 13 12 11 12 13 14 16 18 20 22 24 26 28 31
50 50 49 47 46 44 42 42 41 40 39 38 36 35 35 34 33 30 27 24 22 19 16 15 14 14 13 12 13 14 16 18 19 21 23 25 26 28
54 53 53 52 50 48 46 44 43 43 43 40 39 38 38 36 35 33 30 27 25 22 19 17 16 15 14 13 14 15 16 17 19 21 22 24 25 27
58 57 57 56 55 52 50 48 46 45 45 43 41 40 39 39 38 36 33 31 28 25 22 19 18 17 15 15 15 15 16 17 19 20 22 23 25 27
62 61 61 60 59 57 54 52 49 48 47 47 45 43 42 41 40 38 36 34 32 29 25 22 19 18 16 16 16 16 16 17 18 20 21 22 23 25
62 63 63 63 62 61 59 57 54 51 50 49 48 46 44 43 42 40 39 37 35 32 28 25 21 19 18 17 17 16 17 17 18 19 20 21 22 23
61 62 63 64 64 64 63 61 59 56 52 51 50 49 47 45 44 43 41 40 37 34 31 27 24 21 19 18 17 17 17 17 18 18 19 20 21 21
57 58 60 63 65 65 64 63 62 60 57 54 51 50 48 47 46 45 43 42 40 37 34 30 26 23 21 19 18 18 17 17 18 19 19 19 19 20
51 53 56 58 62 64 65 64 64 62 60 57 55 52 51 48 47 46 45 44 42 39 36 32 28 25 22 20 18 18 18 18 18 18 17 18 18 18
47 50 52 53 56 60 63 64 64 64 62 60 58 55 53 51 49 48 46 45 44 41 38 34 30 27 24 21 19 18 18 18 17 17 17 17 17 18
42 45 48 49 50 53 58 61 63 64 64 62 60 58 55 51 50 49 47 45 43 42 39 35 32 29 26 23 20 19 18 18 17 17 17 16 16 17
35 40 44 44 45 47 51 55 59 61 62 62 61 60 57 54 51 49 48 47 44 42 39 37 34 31 28 24 22 20 19 18 18 18 17 17 17 17
28 33 38 40 42 43 45 49 53 57 59 60 60 60 59 55 51 49 47 45 44 42 40 38 35 32 29 26 23 22 20 19 18 18 18 18 18 18
24 29 33 36 37 39 41 44 48 52 55 56 58 57 57 56 54 50 47 44 43 43 41 39 36 33 31 28 25 23 21 19 18 17 18 18 19 19
20 25 28 31 33 35 37 39 42 46 51 54 54 54 53 54 54 51 47 45 42 43 41 40 38 34 32 29 26 24 22 20 19 18 18 19 19 19
19 22 25 27 28 30 33 35 37 41 45 49 51 52 51 51 51 50 49 46 43 44 43 41 38 35 32 30 27 25 23 21 20 20 20 19 19 19
16 20 22 23 25 26 29 31 33 36 40 43 46 48 50 48 49 49 48 46 43 42 41 39 37 36 33 30 28 25 24 23 21 20 20 20 20 20
15 19 20 21 22 24 27 29 31 33 36 40 42 44 46 47 46 46 46 46 44 43 42 40 37 34 33 31 27 25 24 23 22 21 21 20 19 19
13 15 18 19 20 23 25 27 29 32 34 37 40 42 44 45 45 44 44 43 43 42 43 40 37 34 32 30 28 26 24 23 22 21 21 21 20 19
12 14 16 17 19 21 23 25 28 30 33 36 39 41 42 43 44 44 43 42 41 42 41 40 38 35 32 31 30 28 25 24 22 22 21 20 20 19
11 13 15 16 18 20 21 23 26 28 31 36 38 40 42 43 43 43 42 41 41 41 41 40 38 38 37 33 30 28 26 24 23 22 21 20 19 19
10 13 15 16 17 19 20 22 25 26 29 34 37 40 42 42 43 42 42 42 40 39 41 41 40 38 36 33 30 29 27 26 24 22 21 20 20 19
10 12 15 16 18 19 20 22 24 25 28 33 36 38 41 43 44 44 44 43 41 40 40 41 40 38 35 32 31 29 28 27 25 23 22 22 22 22

GEFSNE_500_meanwind_042.txt.gz
Wind_Speed
35 35 36 36 37 37 38 36 34 33 34 34 35 37 39 38 38 39 39 38 36 35 33 31 29 27 26 25 24 23 23 22 22 22 22 22 23 24
39 38 38 38 38 39 39 40 38 36 33 34 36 37 39 39 40 40 39 39 37 36 35 32 30 28 26 24 23 22 21 21 21 21 21 22 23 23
43 43 42 42 41 41 41 41 41 39 38 36 36 38 40 41 42 42 41 40 39 38 36 34 31 29 27 25 23 21 20 19 19 20 20 21 22 23
47 47 47 47 47 46 45 43 43 42 41 39 38 40 42 44 44 44 43 42 41 40 37 35 33 30 28 26 24 22 20 19 19 18 19 20 21 21
50 51 51 51 51 51 50 49 47 45 43 43 42 42 44 46 47 47 46 44 43 41 39 37 35 32 29 27 24 22 20 19 18 18 18 19 19 21
52 52 53 54 54 55 54 54 52 50 48 46 46 44 46 48 49 48 47 46 44 43 42 40 37 34 31 28 25 22 21 19 18 17 18 18 19 19
52 53 54 55 56 57 57 58 57 55 53 50 49 48 47 49 49 50 50 48 47 46 44 42 39 36 33 29 26 23 21 19 18 17 17 18 18 19
50 51 53 54 55 58 59 61 61 60 58 56 54 53 50 50 50 51 52 50 48 47 45 44 41 38 35 31 28 24 22 20 18 17 17 17 18 18
47 49 50 51 52 56 59 62 64 63 62 60 58 57 54 52 52 52 53 53 51 49 48 46 44 41 37 33 29 26 23 21 19 19 18 18 18 18
43 45 46 48 49 52 57 60 63 65 64 63 62 60 59 55 54 53 53 53 53 52 50 48 46 43 40 36 32 28 25 23 21 19 19 18 18 18
38 40 42 43 46 49 53 57 61 65 67 66 66 65 64 60 57 56 55 54 53 52 51 49 47 45 42 38 35 31 28 24 22 21 19 19 18 18
33 34 36 39 42 46 49 53 58 63 66 68 68 67 66 64 61 58 56 54 52 51 51 50 49 48 44 41 37 34 30 26 24 22 20 19 19 19
26 27 30 33 37 42 46 49 54 60 64 67 69 69 68 67 63 59 57 56 53 51 51 51 51 50 46 43 40 36 32 28 25 23 22 20 19 19
19 20 23 28 33 37 42 44 49 56 61 64 66 68 68 67 65 61 58 57 55 52 52 53 52 51 49 46 43 39 35 31 28 25 23 21 20 19
14 14 17 22 27 33 38 41 44 50 55 59 63 65 67 67 65 63 59 56 55 54 52 52 52 52 50 48 45 41 36 33 30 27 24 23 22 21
8 8 12 17 23 29 35 39 42 46 50 54 59 62 65 66 65 63 60 57 54 53 51 51 52 51 50 48 46 42 38 35 31 28 26 24 23 22
6 6 9 14 20 25 30 35 38 42 46 50 55 58 61 63 63 62 60 58 54 53 49 48 51 51 50 49 46 43 39 36 33 30 28 26 24 23
5 5 8 12 17 22 28 32 36 39 43 47 51 54 57 60 60 59 58 56 54 52 50 47 48 49 49 48 45 42 39 36 34 31 29 28 26 25
3 4 7 11 15 20 24 28 32 37 40 44 47 50 53 56 57 57 56 55 52 52 50 48 47 47 47 45 43 42 39 37 35 32 30 29 28 27
2 4 6 10 13 17 22 26 30 34 38 42 44 47 51 53 55 55 55 55 51 51 49 47 44 44 46 45 43 43 41 38 36 33 32 30 29 27
4 5 7 10 13 16 20 24 28 31 35 38 42 46 49 51 53 54 54 54 51 49 48 46 43 43 45 47 44 42 40 38 36 34 32 30 28 27
5 7 8 10 12 15 18 22 26 30 33 35 40 45 48 49 51 53 53 52 51 50 48 46 45 45 45 45 43 41 39 37 35 33 31 30 29 29
5 6 8 10 12 15 17 21 24 27 30 33 37 42 46 48 50 52 52 52 52 51 49 46 44 44 45 44 43 41 40 37 35 34 32 31 30 30

GEFSNE_500_meanwind_048.txt.gz
Wind_Speed
40 40 39 39 39 39 39 39 39 39 38 38 38 38 39 39 40 42 44 44 44 43 43 43 42 41 39 38 36 34 32 31 30 29 28 27 27 27
39 40 41 41 41 41 41 41 40 40 39 39 40 40 40 39 39 41 43 44 44 45 44 44 43 42 40 39 37 35 33 31 30 29 28 27 26 26
38 39 40 41 42 43 43 43 43 42 41 41 41 41 42 41 41 42 43 45 45 45 45 45 44 43 41 39 37 35 33 31 30 28 27 27 26 25
38 39 40 41 42 43 44 44 45 44 43 43 43 42 42 43 43 43 44 47 46 46 46 45 44 43 41 40 38 36 34 32 30 28 27 26 25 24
38 39 40 41 42 44 45 46 47 47 45 45 45 45 44 44 43 45 45 47 49 48 47 46 45 44 42 40 38 36 35 32 30 29 27 25 25 24
38 39 40 42 43 45 46 47 48 49 48 47 47 48 46 45 45 45 45 47 49 49 49 48 46 44 43 41 39 38 35 33 31 29 27 26 24 24
38 39 40 42 44 46 47 49 50 51 51 49 50 50 49 47 47 46 47 47 48 49 49 49 46 45 44 42 40 38 36 34 31 29 27 25 24 23
38 39 41 42 44 46 48 50 52 53 54 53 52 52 51 50 49 47 47 48 47 48 49 48 47 46 44 43 41 39 37 34 32 30 27 25 23 22
38 40 41 42 43 45 47 49 52 54 56 57 56 55 55 53 51 50 48 48 49 49 49 49 48 46 45 43 42 40 38 35 33 31 28 26 24 22
37 38 40 41 43 44 46 48 51 54 57 59 59 58 58 57 54 52 51 49 49 51 51 50 49 47 46 45 43 41 39 37 34 32 29 27 25 23
36 37 37 38 40 42 44 46 49 52 56 60 62 62 61 60 58 56 53 51 50 51 52 51 50 48 47 46 44 42 40 38 35 33 30 28 26 24
34 35 35 35 37 40 41 43 45 50 55 59 63 65 64 63 61 59 55 53 51 51 52 52 51 50 48 47 45 44 42 40 37 34 31 29 26 24
31 31 31 32 34 36 38 40 43 48 52 57 61 64 66 66 65 62 59 55 53 51 52 53 53 52 50 48 47 45 43 41 39 36 33 30 28 25
28 27 27 28 29 31 33 36 40 45 49 54 59 63 65 67 67 66 63 59 56 53 53 54 55 54 52 51 49 47 46 43 41 38 35 32 29 27
26 25 24 24 25 26 28 32 36 40 45 50 55 60 63 66 67 67 66 62 58 55 54 55 55 55 55 53 51 50 48 46 43 40 37 34 31 28
23 22 21 20 20 21 23 27 31 36 41 46 51 56 61 65 67 67 66 65 61 58 56 55 56 56 55 55 53 51 49 47 45 42 39 35 33 30
21 19 17 16 16 16 17 19 23 30 36 41 46 51 57 62 65 67 67 66 62 60 59 56 55 56 55 55 55 53 50 47 45 43 40 37 34 32
19 17 15 14 12 12 11 13 18 23 30 37 42 46 51 57 62 66 67 66 63 61 60 58 55 55 54 54 54 53 51 48 46 44 41 39 36 33
18 16 14 12 11 9 9 10 13 18 24 31 37 41 45 51 57 62 65 65 62 61 60 58 56 54 53 52 51 52 51 49 47 45 43 40 38 36
16 14 12 11 9 7 7 9 12 16 21 27 32 36 40 45 51 56 61 64 62 61 60 59 57 55 52 51 49 49 51 50 48 46 44 43 40 37
16 14 12 10 8 7 7 7 10 14 18 24 28 31 35 40 44 49 55 59 60 59 59 58 57 54 52 50 49 49 49 51 49 47 46 44 41 39
15 14 12 10 9 8 8 8 9 13 17 20 25 29 31 35 40 45 50 54 56 57 56 56 57 54 52 49 47 47 47 49 48 47 45 43 42 40
14 13 11 10 9 8 9 10 10 13 16 20 23 26 29 33 37 41 45 50 52 54 54 54 56 54 51 50 48 46 46 46 47 46 45 43 42 40

GEFSNE_500_meanwind_054.txt.gz
Wind_Speed
36 37 38 40 40 41 41 42 43 44 44 44 44 44 44 44 44 43 43 44 46 46 48 49 48 47 46 45 43 42 40 38 36 34 32 31 30 29
35 36 38 40 40 41 42 43 44 45 45 46 46 46 46 45 46 44 44 44 46 47 48 49 49 49 48 47 45 43 41 39 37 35 33 32 30 30
36 36 37 39 40 41 42 43 44 45 46 47 48 47 47 47 46 46 45 45 45 47 48 47 48 49 49 48 47 45 43 40 38 36 34 33 31 30
37 37 37 38 39 40 41 43 44 45 46 46 48 48 47 47 47 47 46 46 45 45 46 47 48 49 50 49 47 46 44 42 40 38 35 34 32 30
37 37 37 38 39 40 40 42 43 44 46 46 47 48 48 48 48 46 46 46 47 46 46 47 48 49 50 50 49 47 45 44 41 39 37 34 33 31
37 36 36 37 37 39 40 41 42 44 45 46 48 49 49 49 49 48 46 47 47 47 46 46 47 48 49 50 49 48 46 44 42 40 38 35 33 31
36 36 36 36 37 38 39 40 42 43 44 46 47 49 50 50 50 50 48 47 47 47 47 46 46 47 48 50 50 49 47 46 43 41 39 36 34 33
36 35 35 35 36 37 38 40 41 43 44 46 47 49 50 51 52 52 51 49 47 47 47 46 46 47 49 49 50 49 48 46 44 42 40 37 35 33
35 35 35 35 36 36 37 39 41 42 44 46 47 49 50 51 52 53 53 50 48 47 47 46 46 47 48 50 50 50 49 48 46 43 41 39 36 34
34 34 35 35 36 36 37 38 40 41 43 46 47 49 52 53 53 53 53 52 51 49 47 46 46 46 47 49 51 51 51 49 47 45 43 40 38 35
33 34 34 33 34 35 36 36 38 40 43 45 47 49 52 53 54 54 54 53 52 50 48 46 45 45 46 47 49 50 50 50 49 46 43 41 39 36
33 33 32 31 32 33 34 36 37 39 42 44 46 49 51 54 56 56 56 56 54 52 50 47 45 44 45 46 47 48 49 50 49 47 44 42 40 37
31 31 30 30 30 32 33 34 35 38 41 43 46 48 50 53 56 57 57 57 56 54 51 49 46 43 43 44 46 47 48 50 49 46 45 43 40 38
30 29 29 29 29 30 30 32 33 35 37 40 43 46 49 51 54 57 58 58 58 56 53 51 48 45 43 44 45 47 48 50 49 47 45 44 42 39
29 28 28 28 28 28 28 29 30 31 34 37 40 43 47 50 53 56 58 60 60 58 56 52 49 46 44 43 45 47 48 49 49 48 46 44 42 40
28 27 27 26 26 25 26 26 27 28 30 33 37 40 44 47 51 54 56 59 60 60 58 55 51 49 45 43 44 45 47 48 49 49 47 46 43 40
27 26 25 24 24 24 24 24 25 26 28 30 33 37 41 44 48 52 54 58 60 61 60 57 54 52 49 46 46 46 47 49 50 50 49 46 43 41
26 25 24 24 24 23 22 23 23 24 25 28 31 34 38 42 45 49 52 55 58 61 60 58 56 54 51 48 49 47 48 49 50 51 49 47 44 42
25 24 23 22 22 21 21 21 20 21 22 25 27 31 35 40 43 46 49 54 57 59 61 60 58 56 53 51 50 49 49 50 51 51 49 47 45 43
24 23 22 21 20 19 19 20 19 19 20 21 24 26 31 36 41 44 47 50 55 57 60 59 58 57 54 53 51 51 51 51 51 51 50 48 46 44
23 22 21 20 19 18 18 18 18 18 17 18 20 23 27 32 38 42 44 47 51 55 58 59 58 58 57 55 52 52 53 53 53 51 50 49 47 45
22 21 20 19 18 17 16 16 16 16 16 16 18 21 25 29 34 39 42 44 48 52 55 57 58 59 59 56 53 51 52 54 54 53 52 51 49 46
21 21 20 19 17 16 16 16 16 16 16 16 17 20 24 27 31 36 39 42 45 49 53 55 57 59 59 58 55 52 51 52 53 53 52 51 50 48

GEFSNE_500_meanwind_060.txt.gz
Wind_Speed
33 34 35 35 36 36 36 36 36 37 38 39 41 41 41 42 42 42 42 43 43 44 43 44 45 46 46 47 48 48 48 46 45 43 41 38 36 34
36 36 37 38 38 39 39 40 40 39 39 40 42 43 43 43 43 43 43 44 44 45 45 45 45 46 47 47 48 48 48 48 46 45 43 41 38 36
39 39 39 40 41 41 41 42 42 42 41 41 43 44 44 44 44 44 44 45 45 46 47 47 46 45 46 47 47 47 48 48 48 47 45 43 41 38
41 42 42 42 42 42 43 43 43 43 43 42 43 44 45 45 45 46 46 45 45 46 47 48 47 46 46 47 46 47 48 48 48 48 47 45 42 40
43 43 42 42 41 42 42 42 42 42 42 42 42 44 45 46 46 46 47 46 46 46 46 47 48 47 47 46 47 48 49 49 49 49 49 47 44 42
43 42 41 40 40 39 39 40 40 41 41 41 41 42 44 45 45 46 46 46 46 46 45 45 47 47 47 47 47 48 49 50 50 50 49 48 45 43
42 40 39 38 37 37 36 37 38 39 40 40 40 41 42 43 44 45 46 46 46 46 45 45 45 47 47 47 46 47 48 48 49 50 50 48 46 44
40 38 37 36 36 35 35 35 36 36 37 38 39 39 40 41 43 44 45 46 46 47 47 46 45 45 46 48 48 47 48 47 48 49 50 49 48 45
38 37 36 35 34 33 33 33 34 34 36 36 37 38 39 40 41 42 43 45 45 45 46 46 45 44 44 46 47 48 48 47 48 49 49 49 49 47
37 35 34 34 33 32 32 32 33 33 34 35 35 36 38 39 41 41 42 43 44 45 46 45 45 44 44 43 44 45 46 47 48 49 48 48 48 48
35 34 34 33 33 32 33 32 32 32 33 34 34 35 36 38 40 41 42 43 43 44 46 46 45 44 43 42 42 44 45 46 46 48 48 49 49 49
35 34 34 32 32 32 33 32 32 33 33 33 34 34 35 37 38 40 41 43 43 43 45 46 45 45 44 43 43 44 44 44 45 46 48 49 49 51
34 34 33 32 31 32 32 32 32 32 32 32 32 33 34 36 38 39 40 42 43 43 45 46 46 45 44 43 43 43 43 44 44 45 47 48 49 50
35 34 33 32 32 31 31 31 32 31 31 31 32 32 33 34 36 38 39 41 43 45 46 46 47 46 45 44 42 42 42 42 43 44 46 48 49 50
34 34 33 32 32 31 31 30 30 29 30 30 30 30 31 32 34 36 38 40 42 45 46 46 47 47 45 45 44 42 41 41 42 43 45 46 47 49
34 33 33 32 31 31 30 30 29 29 29 29 30 30 30 31 32 34 36 38 41 43 45 47 47 47 46 45 44 42 42 41 42 42 43 45 46 48
34 33 32 31 30 29 29 29 29 28 28 28 28 29 29 30 32 33 35 37 39 41 44 46 47 48 48 46 44 42 41 41 40 41 42 44 45 45
33 32 31 30 29 28 28 27 27 27 27 27 27 28 28 29 30 31 33 35 37 39 42 45 47 48 48 47 45 43 41 41 41 40 42 44 44 45
32 31 30 29 28 27 27 26 26 26 26 25 25 26 26 27 28 29 32 34 36 38 41 44 46 47 47 47 45 43 41 41 41 40 40 42 44 44
31 30 29 28 28 27 26 26 26 25 25 24 24 24 23 24 25 27 29 32 35 37 40 43 45 46 47 47 46 45 43 42 42 41 41 41 42 43
30 29 28 27 27 27 26 26 26 25 25 25 24 23 23 23 23 25 27 29 33 35 38 41 43 45 47 48 48 46 45 43 42 42 42 42 43 44
29 28 28 27 27 27 26 26 25 25 24 24 23 22 22 23 23 24 26 28 31 34 36 39 42 45 47 48 48 47 46 45 44 43 42 43 43 44
28 28 27 27 27 26 25 25 24 23 22 21 21 22 22 22 23 24 25 27 30 33 36 38 41 44 46 48 49 48 48 47 44 43 43 43 44 44

GEFSNE_500_meanwind_066.txt.gz
Wind_Speed
27 28 28 29 29 30 31 31 32 33 35 36 37 37 36 36 36 37 38 39 39 41 42 42 42 42 42 42 42 43 43 45 46 44 43 42 40 37
29 30 31 32 33 34 35 35 35 36 37 39 40 41 41 40 39 40 40 41 42 42 43 44 44 44 44 43 44 43 43 44 45 46 45 44 43 41
32 33 34 34 35 36 37 38 38 38 38 40 42 43 43 43 43 42 42 43 43 44 45 46 46 46 46 46 46 46 44 44 46 46 46 46 46 44
35 35 35 36 37 37 38 38 39 39 39 39 42 43 44 45 45 45 44 44 45 45 46 47 47 48 48 48 48 47 47 46 46 47 47 47 47 46
36 37 37 38 38 38 38 38 38 38 38 37 39 41 43 44 45 45 46 45 46 46 47 47 48 49 49 50 50 49 48 48 47 48 48 48 48 48
38 38 39 39 39 39 38 38 37 37 37 37 37 38 40 42 43 44 44 45 46 47 48 48 49 49 50 50 51 51 50 49 49 49 49 49 49 49
39 40 40 40 40 39 38 37 37 36 36 35 35 36 37 39 40 41 42 43 44 46 47 48 49 49 50 51 52 52 51 50 49 49 49 49 49 50
40 41 40 40 40 39 38 36 36 35 35 34 33 33 35 36 38 38 39 40 42 44 46 47 48 49 50 51 52 52 52 51 51 51 50 49 49 50
41 41 41 41 40 39 37 36 35 35 34 34 33 33 33 35 36 37 38 39 39 42 44 45 47 47 48 50 51 52 52 51 51 51 50 50 49 50
42 42 42 41 40 39 37 35 34 34 34 33 32 32 33 34 34 35 36 37 38 40 43 43 45 46 47 48 50 52 52 52 51 51 50 50 51 50
43 43 42 41 40 39 37 35 34 34 33 33 32 32 32 33 34 35 35 36 37 39 41 42 43 46 47 48 49 50 52 52 51 51 51 51 51 51
43 43 42 40 39 38 37 35 34 33 33 33 32 32 33 33 34 34 35 36 37 38 40 41 43 45 46 47 48 49 50 51 50 50 51 51 51 52
44 43 41 40 38 37 36 35 34 33 32 32 32 32 32 33 34 34 35 35 36 37 40 42 42 44 45 47 48 48 49 50 50 50 51 51 51 52
44 42 41 40 38 37 36 35 34 33 32 32 32 32 32 32 33 33 34 34 35 36 39 41 42 43 45 47 48 48 49 50 50 50 50 51 51 52
43 42 41 39 38 36 35 35 34 32 32 31 31 31 31 31 31 32 33 33 34 35 37 39 41 43 45 46 48 48 49 50 50 49 50 49 49 50
44 42 41 39 37 36 35 34 33 32 31 30 30 30 30 31 31 31 32 33 33 35 37 39 41 43 44 46 48 48 49 49 50 49 49 49 48 48
44 42 40 38 36 35 34 32 31 31 30 30 29 29 29 30 30 31 32 33 33 34 36 39 40 42 44 46 47 48 48 48 48 49 49 49 48 47
43 41 39 38 36 35 33 32 31 30 30 29 29 28 29 29 31 32 32 32 33 34 35 37 39 41 42 44 45 47 48 47 47 48 48 48 47 46
43 40 38 37 35 34 33 31 30 30 29 28 28 28 29 29 30 31 32 32 32 33 34 36 38 39 40 42 44 46 48 47 46 47 47 48 47 47
42 39 37 35 34 33 32 31 30 29 29 28 28 28 28 29 29 29 30 31 31 32 33 35 36 37 39 41 44 46 48 48 46 46 46 47 47 47
40 37 35 34 33 33 32 30 29 29 28 28 27 27 28 28 27 28 28 29 30 31 31 32 35 37 39 42 43 44 46 47 46 45 46 46 46 47
36 34 33 32 32 32 31 30 29 29 29 28 28 27 27 27 27 26 27 27 28 29 30 32 35 37 38 39 42 44 46 47 46 46 46 45 45 45
33 32 31 30 30 30 29 28 28 28 28 28 27 27 27 27 26 25 25 26 26 27 28 30 33 35 36 38 40 42 45 47 47 46 46 45 44 45

GEFSNE_500_meanwind_072.txt.gz
Wind_Speed
20 21 22 22 23 23 23 24 25 26 28 29 29 29 30 32 34 35 36 37 37 37 38 38 38 40 41 41 40 41 41 42 43 43 44 44 42 41
23 24 25 25 25 25 25 26 26 27 29 31 31 32 33 34 35 37 39 40 41 41 42 42 42 42 42 43 43 43 43 43 44 44 45 46 45 44
26 27 27 27 28 28 28 28 28 29 29 31 33 33 34 35 37 38 39 41 43 44 44 45 46 46 45 45 45 45 45 45 46 46 45 45 46 47
28 29 29 30 30 30 30 30 30 31 31 32 33 35 35 36 37 38 39 41 43 45 47 48 49 49 49 48 48 48 48 47 47 48 47 47 46 47
30 31 32 32 32 32 32 32 32 33 33 33 34 35 36 37 37 37 39 40 42 44 47 49 50 51 52 51 51 50 50 50 49 49 50 50 49 49
33 33 33 33 33 33 34 34 34 34 35 35 35 36 37 38 38 38 38 39 41 43 45 48 50 52 53 53 53 53 53 53 52 51 51 51 51 50
35 34 34 34 35 35 35 35 35 35 36 36 36 37 38 39 39 39 38 39 40 41 43 46 48 51 52 54 55 55 55 54 54 54 53 53 52 52
37 36 36 36 36 37 37 37 37 37 38 38 37 37 38 39 39 39 38 38 39 41 42 43 46 48 51 53 54 55 56 56 56 56 55 54 54 53
39 39 38 38 38 38 38 38 38 39 39 39 38 39 39 39 39 39 38 38 38 40 41 41 43 45 47 50 52 54 55 56 57 57 57 56 55 55
41 41 41 40 40 40 40 40 40 40 41 40 39 39 39 39 39 38 38 38 38 39 40 39 41 43 45 47 49 51 53 55 56 57 58 58 58 57
44 44 44 43 43 43 42 41 41 41 41 41 40 39 39 39 39 38 38 38 37 38 39 39 40 42 43 45 47 49 51 53 54 55 57 58 59 58
46 47 46 45 45 45 44 43 42 42 42 42 41 40 39 39 39 38 38 38 37 36 38 39 39 41 41 43 45 47 49 51 52 53 55 57 58 59
49 49 49 48 47 47 46 45 43 43 42 42 41 40 39 38 38 38 37 37 36 36 37 38 38 39 40 41 43 45 47 48 50 52 53 54 56 57
52 52 51 50 50 49 47 46 46 44 43 42 41 40 39 39 39 38 37 36 36 35 36 37 38 39 39 40 42 44 46 47 48 50 51 53 54 55
56 55 53 52 52 51 49 48 47 46 44 42 41 40 40 40 39 38 37 36 35 35 36 37 38 39 39 39 40 43 45 46 47 48 50 51 53 54
59 58 56 55 54 53 51 50 49 47 45 43 41 41 40 40 39 38 37 37 36 35 35 36 37 37 38 39 39 41 43 44 46 48 49 50 50 52
62 61 59 57 56 55 53 52 50 48 46 43 42 41 40 40 39 38 37 37 35 35 35 36 36 37 37 37 38 39 41 43 45 47 48 49 49 50
65 63 62 60 58 56 54 52 51 48 46 44 42 41 40 39 38 38 37 36 35 34 34 36 37 37 36 36 37 38 40 43 45 47 48 48 48 49
67 65 62 60 58 56 54 52 50 47 45 43 41 40 39 39 38 37 37 36 35 34 34 35 36 36 36 36 36 38 40 42 44 45 47 47 48 49
66 63 61 59 56 54 51 49 48 45 43 42 40 39 39 38 37 36 36 35 34 34 34 34 35 36 36 36 36 38 39 40 42 44 45 46 47 48
59 56 54 52 50 48 47 46 44 42 40 39 38 38 38 37 36 35 34 34 34 34 34 34 35 36 36 35 35 35 37 39 40 42 44 45 46 47
50 47 45 43 42 41 41 41 40 37 36 36 37 37 36 35 34 34 33 33 33 33 33 34 35 35 34 34 34 35 36 37 38 39 41 43 44 45
39 37 36 35 34 34 34 34 34 33 34 34 35 35 34 34 33 33 32 33 33 33 33 33 34 34 33 32 32 33 35 36 37 37 38 40 42 44

GEFSNE_500_meanwind_078.txt.gz
Wind_Speed
17 17 18 18 19 19 20 21 21 22 22 22 22 22 23 23 24 25 26 27 29 30 32 33 33 34 34 35 35 36 36 37 37 39 41 42 43 43
19 20 20 20 20 21 22 22 23 24 25 25 24 24 24 25 26 27 28 29 30 31 33 34 36 37 38 38 39 39 39 39 40 40 41 43 43 44
23 23 23 23 23 24 24 25 25 25 26 27 27 27 27 26 26 28 29 30 31 32 33 35 37 38 39 41 41 42 43 43 43 43 43 44 45 44
25 25 26 26 26 26 26 27 27 27 27 28 28 29 29 28 28 29 30 30 32 33 34 35 37 38 40 41 43 44 45 46 46 46 45 45 46 47
28 28 28 28 28 28 28 28 28 28 29 29 30 30 30 30 30 30 31 31 32 33 34 35 37 38 40 42 43 45 46 48 49 49 49 48 48 48
30 29 30 30 31 31 31 31 31 31 31 31 32 32 32 32 32 32 32 32 32 33 34 35 36 38 40 42 43 45 46 48 50 51 52 52 51 50
32 32 32 32 33 33 34 33 33 33 34 33 33 34 35 35 34 34 34 34 34 35 35 36 37 38 40 42 43 45 46 48 49 51 53 54 54 54
34 34 35 35 35 36 36 36 36 36 36 36 36 36 37 37 37 37 36 36 36 36 37 38 38 39 40 41 43 44 45 47 49 51 53 54 55 56
37 38 38 39 38 39 39 39 39 39 39 39 39 39 39 39 40 39 38 37 37 38 39 39 40 40 40 41 42 44 45 46 48 50 52 54 55 57
41 42 42 42 42 43 43 42 42 42 43 43 42 42 42 42 42 42 41 40 39 40 40 40 40 41 41 41 41 43 44 45 46 48 50 52 55 57
46 46 46 46 46 47 47 46 46 45 45 45 45 44 44 44 44 44 43 42 41 41 41 41 41 42 41 41 42 42 43 45 45 46 48 50 52 55
50 50 50 49 50 51 51 51 49 48 49 49 48 47 46 46 46 45 45 44 43 42 42 42 42 42 41 41 42 43 43 44 44 45 46 48 50 52
54 53 53 53 53 54 55 54 53 52 52 52 51 49 49 48 48 47 47 46 45 44 43 43 42 42 43 42 42 42 43 44 44 44 45 46 48 50
57 57 57 57 57 57 58 57 57 57 56 55 54 53 52 51 50 49 49 48 47 45 44 44 43 43 43 42 42 42 42 43 43 43 44 44 45 47
62 62 62 62 62 61 61 60 60 60 59 58 57 56 54 53 52 51 50 49 48 47 45 45 45 44 44 42 42 42 42 42 42 42 43 43 44 45
66 66 66 65 65 65 65 64 63 63 62 61 60 59 57 55 54 53 52 51 50 48 46 46 45 45 44 43 42 41 41 41 42 42 42 43 43 44
70 70 69 69 69 68 68 67 66 65 64 63 62 60 58 57 56 54 53 52 51 49 47 46 45 44 43 42 41 40 40 41 41 42 42 42 42 43
71 71 70 69 69 68 68 67 66 66 64 63 61 60 58 57 55 53 52 52 51 49 47 46 45 44 43 41 41 40 40 40 40 41 41 41 40 41
68 67 66 65 64 64 63 62 62 62 61 60 58 57 57 56 55 54 52 51 49 48 46 45 44 43 42 40 40 40 39 39 39 40 40 40 40 40
62 61 60 59 58 57 55 55 55 55 55 54 54 54 54 53 52 51 51 49 48 46 45 44 42 42 41 40 39 39 39 38 39 39 39 40 40 40
55 55 53 52 50 49 48 48 47 47 47 48 48 47 47 48 48 47 47 46 45 44 43 41 40 40 40 39 38 37 38 38 38 38 38 39 40 40
47 46 45 44 42 41 41 41 41 40 39 39 39 40 40 41 41 41 43 43 42 40 39 38 38 38 38 37 37 36 37 37 37 38 38 38 39 40
39 37 37 36 35 35 34 33 32 31 30 30 31 32 33 34 35 35 36 37 37 36 35 35 36 37 37 37 36 36 36 36 37 38 37 38 39 40

GEFSNE_500_meanwind_084.txt.gz
Wind_Speed
18 18 19 19 20 20 20 20 21 20 20 19 19 20 21 21 21 22 22 22 22 22 22 23 24 24 25 25 26 27 27 29 29 30 31 32 33 35
21 21 22 22 23 23 24 24 24 24 24 23 22 22 22 23 23 24 24 24 25 25 25 25 25 26 26 27 28 29 29 30 31 32 33 34 34 35
24 24 24 25 25 26 26 27 27 27 27 27 26 25 25 25 25 25 26 26 26 27 27 27 27 27 28 28 29 30 31 32 33 34 35 35 36 37
26 26 26 27 27 28 28 29 29 30 30 30 30 29 28 28 28 28 28 28 28 28 28 28 28 29 29 29 30 31 32 33 34 35 36 38 39 39
28 28 29 29 29 30 30 31 32 32 32 32 32 32 32 32 31 31 31 31 30 30 29 30 30 31 30 30 31 31 31 33 34 36 37 38 39 41
30 31 31 31 32 33 33 34 34 34 34 34 34 35 35 35 34 34 33 33 33 33 32 31 32 32 32 32 32 32 33 33 34 35 37 38 40 41
32 33 34 34 35 36 36 36 37 37 38 38 38 37 37 38 38 37 36 36 35 35 35 34 34 34 34 34 34 34 34 34 34 35 36 38 40 41
35 35 36 36 37 38 39 40 40 40 40 41 41 40 40 41 41 40 39 39 37 37 37 36 36 36 36 35 35 36 36 36 36 36 37 38 39 40
38 39 39 40 41 41 42 43 43 44 44 44 44 43 44 44 44 43 43 42 41 40 41 39 38 38 38 38 37 37 37 38 38 38 38 38 39 40
41 42 43 43 44 45 46 46 46 47 47 47 47 47 47 47 48 47 46 45 44 43 44 43 41 41 40 40 39 39 39 38 39 39 39 39 40 41
43 44 45 46 47 48 49 50 49 49 49 50 51 51 50 50 50 50 49 49 47 45 45 46 44 43 43 42 42 41 40 40 40 40 40 40 41 41
46 47 48 49 49 51 52 52 53 52 53 54 54 54 53 52 52 53 53 52 51 48 47 48 47 46 45 44 44 43 42 42 41 41 41 41 42 42
49 50 52 53 54 55 56 57 57 57 58 58 58 58 58 57 56 56 55 55 55 53 51 51 50 49 47 45 45 45 44 44 43 42 41 42 42 42
53 55 57 58 59 60 61 61 62 63 63 62 62 62 61 61 60 59 58 58 57 56 54 54 53 52 50 48 47 46 46 46 44 43 42 42 42 43
58 59 61 62 63 64 65 65 66 66 66 66 66 65 65 64 64 62 61 60 59 57 56 56 55 54 52 50 48 47 47 46 45 45 43 43 42 42
62 63 64 65 66 66 67 67 68 68 68 68 68 67 66 66 65 64 63 62 61 59 57 57 56 56 54 52 50 49 47 46 46 45 44 43 42 42
65 65 66 66 66 67 67 67 67 67 66 66 65 65 64 63 61 61 61 60 60 59 58 56 55 55 55 53 52 50 48 47 47 46 45 44 43 42
64 64 63 64 64 63 63 62 62 63 62 62 60 59 59 58 57 57 57 57 57 56 54 54 53 53 53 52 51 50 48 47 46 46 45 44 42 42
61 60 60 59 58 57 58 58 58 57 57 56 56 55 54 54 54 54 54 54 54 53 52 51 51 51 51 50 48 49 48 47 46 45 44 44 42 41
56 55 54 53 53 52 52 52 51 50 49 49 48 48 48 48 48 48 48 49 49 49 48 48 48 48 47 48 47 47 46 45 44 43 43 43 42 42
51 50 49 49 48 47 46 46 45 44 43 42 41 41 42 42 42 42 43 43 44 44 44 44 44 45 46 47 46 44 44 45 44 43 43 42 42 41
46 45 44 43 42 41 40 40 39 38 37 36 35 36 36 37 37 36 37 38 38 39 39 40 41 41 42 43 42 41 42 42 41 40 40 40 40 40
41 40 39 38 37 36 35 35 34 33 32 30 29 29 29 30 30 30 31 31 32 32 34 35 36 37 37 38 38 38 39 39 39 39 38 38 39 39

GEFSNE_500_meanwind_090.txt.gz
Wind_Speed
14 14 15 15 15 15 16 16 16 16 16 16 16 16 16 17 16 16 17 17 17 17 17 18 18 19 20 20 21 22 23 24 25 26 26 27 28 29
17 17 18 18 18 19 19 19 19 19 19 19 19 19 19 20 20 20 20 20 20 20 20 20 21 21 22 22 23 23 24 25 26 27 28 29 29 30
20 21 21 21 21 22 22 22 22 22 22 22 22 22 22 23 23 23 23 23 23 23 23 23 23 24 24 25 25 26 26 26 27 28 28 29 30 31
23 23 24 24 25 25 25 25 25 25 25 25 25 25 25 26 26 26 27 27 27 27 27 27 27 27 27 27 27 28 29 29 29 29 30 31 31 32
25 26 26 27 28 28 29 29 29 29 29 29 29 29 29 29 29 30 30 30 30 30 30 30 30 30 30 30 30 30 31 31 32 32 32 32 32 33
28 29 29 30 30 31 32 32 32 32 33 32 32 33 33 33 33 33 33 33 33 34 33 33 33 33 34 33 33 33 33 33 34 34 34 34 34 34
31 31 32 33 33 34 35 35 35 35 35 36 36 36 36 37 37 37 37 36 36 37 37 36 36 36 37 37 37 36 36 36 36 36 36 36 36 36
34 34 35 36 37 37 38 38 38 39 39 39 40 39 39 41 41 41 41 40 39 40 41 39 40 39 39 40 39 39 39 39 39 39 39 38 38 38
36 37 37 39 40 41 41 42 42 42 42 43 43 42 42 43 45 45 45 45 43 42 44 42 43 42 42 43 43 42 42 42 41 41 41 41 40 40
39 40 41 42 42 43 43 44 44 44 45 45 46 45 45 46 48 48 49 49 48 47 48 47 46 46 46 46 46 46 45 45 44 44 44 43 42 42
40 40 41 42 42 44 45 45 45 46 47 48 49 49 49 50 52 53 53 54 52 51 52 52 50 51 50 50 49 49 48 48 47 47 46 46 45 45
42 42 42 43 43 45 46 47 48 49 50 51 52 53 54 55 56 57 58 58 58 56 56 57 56 57 55 53 53 53 52 51 50 49 49 48 48 47
44 44 45 46 47 48 49 51 52 53 54 55 56 57 59 60 61 62 63 63 63 62 61 61 61 61 61 59 57 56 56 55 54 53 52 51 51 50
46 47 48 49 51 52 54 56 57 58 59 60 61 61 62 63 64 64 65 65 66 66 65 65 65 64 64 63 61 59 59 58 57 56 55 54 53 53
48 50 51 52 54 56 58 60 61 62 63 64 64 64 65 65 65 65 66 67 67 66 66 67 67 67 67 66 64 62 61 60 60 59 57 56 55 55
52 53 55 56 58 59 60 62 63 64 64 65 65 65 66 66 66 67 67 68 68 68 68 69 69 69 69 68 67 65 63 61 60 60 59 58 58 56
56 57 58 59 60 61 62 62 62 62 62 63 63 63 63 64 64 66 67 67 68 67 65 65 65 66 66 66 67 66 63 61 60 60 61 59 58 57
58 58 59 59 59 60 59 59 59 59 59 59 60 60 60 61 61 61 62 62 63 62 61 60 60 61 61 62 62 63 62 61 60 60 60 59 57 56
57 57 57 56 56 55 55 55 55 55 55 55 55 55 55 55 55 54 54 54 54 53 53 54 55 56 57 56 54 57 58 58 58 59 58 57 55 53
54 53 53 52 52 52 51 51 51 51 50 49 48 48 47 47 47 47 47 47 46 46 46 47 48 49 50 51 51 51 53 54 55 56 55 55 53 52
51 50 49 49 48 47 47 46 46 45 44 44 43 42 42 42 41 41 41 40 40 40 40 40 42 44 45 45 45 45 47 49 51 52 52 53 52 51
47 46 45 44 42 41 40 39 38 38 38 37 36 36 36 36 35 35 34 34 34 34 34 34 36 39 41 41 40 40 41 44 46 47 48 49 49 49
41 40 38 37 36 34 33 33 33 32 32 31 31 31 31 30 30 29 28 28 28 28 28 29 31 32 34 36 37 36 36 38 41 42 42 44 45 45

GEFSNE_500_meanwind_096.txt.gz
Wind_Speed
17 17 17 18 18 18 18 19 19 19 19 19 20 20 20 20 20 20 20 20 20 20 20 21 21 21 21 21 21 21 22 22 23 23 24 24 25 26
20 21 21 21 21 21 21 22 22 22 23 23 23 23 23 23 23 23 23 24 24 24 24 24 24 24 24 24 24 25 25 25 25 26 26 26 27 27
23 24 24 24 25 25 25 25 25 25 26 26 26 26 27 27 27 27 27 27 28 28 28 28 28 28 28 28 28 28 28 28 28 28 29 29 29 29
27 27 28 28 28 28 28 28 28 28 28 29 29 30 30 30 30 31 31 31 31 31 31 31 31 32 32 32 32 32 32 32 32 32 32 32 32 32
30 30 31 31 32 32 32 32 32 32 32 32 33 34 34 34 35 35 35 35 35 35 35 35 35 35 35 35 36 36 36 36 36 36 35 35 35 35
33 34 35 34 34 34 35 35 36 36 36 36 36 37 37 38 38 39 39 39 39 39 39 39 39 39 39 39 39 39 39 39 39 39 39 39 38 38
37 37 37 37 37 37 38 38 39 39 40 40 39 40 40 41 41 42 41 41 41 42 42 42 43 42 42 42 43 43 43 42 42 42 42 42 41 41
39 40 40 40 41 41 41 42 42 43 43 43 43 43 42 44 44 45 45 44 44 43 45 45 45 45 45 45 46 46 46 45 45 45 45 44 44 44
42 43 43 43 43 44 45 45 45 46 46 47 47 46 46 46 48 48 49 49 48 47 48 47 47 48 48 49 49 49 49 49 48 48 47 47 46 46
44 45 45 46 46 46 47 48 49 49 50 50 50 50 50 51 52 52 52 52 52 51 52 51 50 51 52 52 53 53 53 53 53 52 52 51 50 49
44 45 45 46 46 48 49 49 50 51 52 52 52 53 53 54 55 55 55 55 55 54 55 56 55 56 55 55 56 57 58 58 57 57 56 56 55 54
45 45 46 47 48 49 50 50 50 51 52 52 53 54 55 56 57 58 59 60 60 59 60 61 61 62 60 59 60 61 62 62 62 61 61 61 60 60
46 47 48 49 49 50 50 51 51 52 52 53 54 56 58 59 60 62 63 64 64 64 65 66 66 66 66 64 63 63 64 65 65 65 64 64 64 64
46 48 49 50 51 52 53 54 55 56 57 57 58 59 60 62 63 65 66 67 68 68 68 69 69 69 69 68 66 65 65 65 66 66 67 66 66 66
49 50 51 52 53 55 56 57 58 60 60 61 61 62 63 64 66 67 68 68 68 69 69 70 70 70 70 69 68 67 67 66 66 67 67 67 67 67
52 52 53 55 56 57 58 60 61 62 62 63 64 64 65 65 66 66 66 66 66 66 68 69 69 69 68 68 68 68 69 68 68 69 69 69 68 68
54 55 56 57 58 59 60 61 62 62 63 63 63 63 63 63 63 63 63 63 63 63 64 65 66 67 67 67 67 67 67 67 67 67 67 67 67 67
55 55 56 57 58 58 58 58 59 59 59 59 59 59 59 58 58 59 60 60 60 59 59 60 61 61 62 61 61 62 62 62 63 63 64 65 64 63
55 55 56 56 55 55 56 55 55 55 55 55 55 55 55 55 55 54 54 54 54 54 54 54 54 55 55 53 52 55 56 55 56 57 58 60 60 59
55 55 54 54 53 53 53 52 52 51 51 50 49 48 48 47 47 47 47 47 47 47 47 47 47 47 47 46 45 45 48 49 49 49 50 52 52 53
52 52 51 50 49 49 48 47 46 45 44 43 43 42 41 41 40 40 40 40 40 40 39 40 40 41 41 40 38 38 40 42 44 44 44 45 45 45
48 47 45 44 43 42 42 40 39 38 38 37 37 36 36 36 35 35 35 35 35 35 34 34 34 34 35 35 34 33 33 35 37 37 38 39 39 38
43 41 40 39 38 37 36 35 34 33 33 32 32 32 32 32 31 31 31 31 31 31 31 30 29 30 30 31 30 29 28 29 31 31 32 33 34 33

GEFSNE_500_meanwind_102.txt.gz
Wind_Speed
16 17 17 17 18 18 18 19 20 20 21 21 22 22 23 23 23 23 22 22 22 22 23 23 23 23 23 23 23 23 23 23 23 23 23 23 23 23
20 20 20 21 21 22 22 23 24 24 25 25 25 26 26 26 26 27 27 26 26 26 26 26 26 26 27 27 27 27 27 26 26 26 26 26 25 25
22 23 24 24 24 25 26 27 27 28 28 29 29 29 30 30 30 31 31 30 30 30 30 30 30 31 30 30 30 30 30 30 30 30 30 29 29 29
24 25 26 27 28 28 29 30 31 31 32 32 33 33 33 34 34 34 34 34 34 34 34 34 34 34 35 34 35 35 35 35 34 34 34 34 33 33
28 29 29 30 31 32 32 32 33 34 35 35 36 37 37 38 38 38 38 37 37 38 38 38 38 38 38 38 38 38 38 38 38 38 38 37 37 37
30 31 32 33 34 35 35 36 37 38 38 38 39 40 40 41 41 42 42 42 42 42 42 42 42 41 41 41 41 41 41 41 41 41 40 40 40 40
32 34 35 35 37 37 38 39 40 41 41 42 42 43 43 43 43 44 44 44 45 44 44 44 45 44 44 44 44 44 44 44 43 43 43 43 43 43
34 35 37 37 38 39 40 41 43 44 44 45 45 45 45 46 46 47 47 48 47 46 46 46 47 47 47 47 47 46 46 47 47 47 47 46 46 46
36 37 39 39 41 42 43 44 45 46 47 48 48 47 47 48 48 49 49 49 48 49 50 48 49 50 50 50 50 50 50 51 51 51 51 51 51 50
39 40 41 42 43 44 46 46 47 47 47 48 49 50 51 51 52 52 53 53 52 52 53 53 52 53 54 54 54 54 55 56 56 55 55 55 54 54
42 43 44 45 46 47 48 48 49 49 50 50 50 51 52 52 53 54 54 55 54 54 55 55 54 55 55 55 55 56 56 57 58 58 57 57 57 57
44 45 45 46 48 49 51 51 52 52 53 53 53 54 55 55 55 56 55 55 56 56 56 57 57 57 57 57 57 58 58 59 59 59 59 59 60 60
46 47 48 49 50 51 52 53 53 54 54 55 56 57 57 58 58 57 57 58 58 57 58 59 59 59 60 60 60 60 60 61 61 61 61 61 62 62
48 49 50 51 53 54 54 55 55 56 56 56 57 57 58 58 59 59 60 60 60 60 61 62 62 63 63 63 62 62 62 62 62 62 62 63 63 63
51 52 53 53 54 55 55 56 56 56 57 57 58 58 59 60 60 61 61 62 62 63 63 63 63 64 64 63 62 62 63 63 63 64 64 64 64 64
53 54 55 55 55 56 56 56 56 57 57 58 59 59 60 60 61 61 62 62 62 62 62 62 62 62 63 63 62 62 62 62 62 63 64 64 64 65
54 54 55 55 55 56 56 56 57 57 57 57 58 58 59 59 60 60 60 60 59 59 58 59 59 59 59 59 59 60 61 61 61 61 61 62 62 63
54 55 55 55 55 55 55 55 56 56 56 56 56 56 56 55 55 55 55 54 54 54 54 54 54 55 55 54 55 56 56 56 57 57 57 57 56 57
54 54 54 54 53 53 53 53 52 52 52 51 50 50 50 49 49 48 48 48 48 48 48 48 48 48 47 46 46 48 49 49 49 49 50 50 51 51
53 52 52 51 50 50 49 48 47 46 46 45 44 43 43 42 42 41 41 41 41 40 40 40 40 40 40 39 39 40 43 44 44 44 44 45 45 45
50 49 48 47 47 46 45 44 43 41 40 39 39 38 37 36 36 36 36 36 35 35 34 34 35 35 35 35 35 35 36 38 38 39 39 39 40 40
45 45 44 43 42 41 40 38 37 36 35 35 34 33 32 32 31 31 30 30 30 30 29 29 30 31 32 32 32 32 32 33 34 35 35 35 35 35
41 40 40 39 37 36 35 34 33 32 31 29 29 28 28 27 27 27 27 27 26 26 25 26 27 28 29 29 29 29 29 29 30 30 30 31 31 31

GEFSNE_500_meanwind_108.txt.gz
Wind_Speed
16 16 17 17 18 19 19 20 20 20 20 21 21 21 22 22 22 23 23 23 23 24 23 23 23 23 23 23 23 23 23 23 23 23 22 22 22 22
18 19 20 20 20 21 22 23 23 24 24 25 25 25 25 26 26 26 27 27 27 27 27 27 27 27 27 27 27 26 26 26 26 26 26 26 25 25
20 22 22 23 23 24 25 26 27 27 28 29 29 29 29 30 30 30 30 31 31 31 31 31 31 31 31 31 31 31 31 30 30 30 30 29 29 29
23 24 25 26 26 27 28 29 30 31 32 32 33 33 33 34 34 34 34 35 35 35 35 35 35 35 35 35 35 35 35 35 35 34 34 34 33 33
24 25 26 27 28 29 31 32 33 33 34 35 35 37 37 37 37 38 38 39 39 39 39 38 38 39 39 40 40 39 39 39 39 38 38 38 37 37
25 27 28 28 30 31 32 33 35 36 37 37 38 39 40 40 40 40 41 41 42 43 42 42 41 41 42 43 43 43 43 42 42 42 42 41 41 40
27 28 29 31 32 34 35 36 37 38 39 40 41 41 42 42 43 43 43 44 44 45 45 45 45 45 45 46 46 46 46 45 45 45 45 45 44 43
28 30 31 31 33 35 37 38 39 40 41 42 43 44 44 45 46 47 47 47 47 47 49 49 49 48 48 48 48 48 48 48 49 48 48 48 48 47
30 31 32 34 35 36 38 39 41 42 43 44 45 46 47 48 49 49 50 51 50 50 51 50 50 51 50 50 50 50 51 51 51 52 52 51 51 51
33 34 35 37 39 40 41 42 43 45 46 47 49 50 51 52 53 53 54 55 54 54 54 54 53 54 54 53 53 52 53 54 53 53 53 52 53 53
36 38 39 41 42 43 44 46 47 48 49 51 52 53 54 55 56 57 57 57 57 57 58 58 58 57 56 55 55 55 55 54 54 53 54 54 55 55
39 41 42 43 45 46 47 49 50 51 52 53 55 56 57 58 59 59 59 59 59 58 59 60 60 59 58 56 56 56 56 56 56 56 55 55 56 56
42 43 45 46 48 49 50 52 53 54 55 56 56 57 58 59 59 59 60 60 60 60 60 60 60 60 60 59 58 58 59 59 58 58 58 58 57 57
45 46 48 50 51 52 53 54 55 56 56 56 57 57 58 58 59 60 60 60 60 60 60 60 60 61 61 61 60 60 60 59 60 60 59 59 58 58
47 49 51 52 53 54 55 56 56 56 57 57 58 58 58 59 59 59 60 60 59 59 59 60 60 60 60 61 61 60 60 59 59 60 60 60 59 59
49 51 52 53 54 56 57 57 57 57 58 58 58 58 58 58 58 58 58 58 58 58 58 59 58 58 58 58 58 57 57 57 56 57 57 57 58 59
51 52 53 54 55 56 57 57 57 57 56 56 56 56 55 55 56 55 55 55 55 54 54 54 53 53 53 52 52 52 52 52 52 52 53 53 53 54
52 53 54 55 55 56 55 55 55 54 53 53 52 52 51 51 50 50 50 50 49 48 47 47 46 46 45 44 45 45 45 44 44 44 45 46 47 48
52 53 53 53 53 53 53 52 51 50 49 49 48 47 46 46 45 45 44 43 42 41 40 39 39 38 37 36 36 38 38 37 38 39 40 41 42 43
51 52 52 51 51 50 49 48 47 47 47 46 45 44 43 42 42 41 40 38 37 35 34 34 34 34 33 31 30 32 33 33 33 33 34 35 35 36
50 50 49 48 47 46 46 45 45 44 44 43 41 40 40 39 38 36 34 33 32 31 30 30 31 31 31 30 29 28 28 29 29 28 28 29 29 30
46 46 45 45 44 44 43 43 42 41 40 39 38 37 36 35 33 31 30 29 28 28 28 28 28 29 28 27 26 24 24 25 26 26 26 27 27 27
44 43 43 42 42 41 41 40 39 39 38 37 36 34 32 31 29 28 28 27 26 26 25 25 25 25 25 24 24 23 23 23 24 24 25 26 26 25

GEFSNE_500_meanwind_114.txt.gz
Wind_Speed
15 15 15 15 15 15 15 15 16 16 16 17 17 18 19 19 20 20 21 21 22 22 22 23 23 23 24 24 25 25 25 25 25 26 26 27 26 26
16 17 17 17 17 17 18 18 19 19 20 20 21 21 22 23 24 24 25 25 26 26 27 27 27 27 28 28 28 29 29 29 29 30 30 30 30 30
18 19 19 19 20 20 21 21 21 22 23 24 24 25 25 26 27 28 29 29 30 30 31 31 32 32 32 32 32 33 33 34 34 34 34 34 34 34
20 21 21 21 22 22 23 24 24 25 25 27 28 28 29 30 30 31 31 32 33 34 34 35 35 36 36 37 37 37 38 38 39 39 39 39 38 38
22 22 23 23 24 25 26 26 27 28 28 29 30 31 32 33 33 34 35 36 36 37 38 38 38 39 39 40 40 41 41 42 42 42 43 43 43 42
23 24 24 25 26 27 28 29 30 31 32 32 33 34 35 36 36 37 38 39 39 40 41 41 41 43 43 44 44 45 45 46 46 46 47 47 47 46
23 24 26 26 28 29 30 31 31 32 33 34 35 36 37 38 39 39 40 41 42 43 44 45 46 47 48 49 49 49 49 50 50 50 51 51 50 50
25 26 28 29 30 31 32 32 33 34 35 36 37 38 39 41 42 43 44 44 45 46 48 49 50 51 52 52 53 54 54 54 54 53 53 53 54 54
28 29 30 30 31 32 33 34 36 37 38 39 40 42 43 44 46 47 48 49 49 50 52 53 54 55 56 56 57 57 58 58 58 58 58 57 57 57
29 30 31 32 33 35 36 37 38 40 41 42 44 45 47 48 49 50 52 53 54 55 56 56 56 57 57 58 59 60 60 61 61 61 61 60 60 60
32 33 34 35 36 37 39 40 41 43 44 46 47 49 50 51 52 54 55 56 56 57 58 59 59 59 60 60 61 62 62 63 63 63 64 64 64 63
34 35 36 37 38 39 41 42 45 46 48 49 50 51 53 54 55 56 57 58 58 59 60 61 61 61 61 61 62 63 63 64 64 65 65 66 66 65
35 37 38 39 41 42 44 46 48 49 50 52 53 54 55 56 58 59 59 60 60 61 61 61 61 61 61 60 59 60 62 62 63 64 65 66 67 67
38 39 41 43 44 46 47 48 49 51 52 54 55 56 57 58 59 60 61 61 61 61 60 60 60 59 59 59 59 59 60 61 61 61 62 63 64 65
41 43 44 45 47 48 48 50 51 53 54 55 56 58 59 60 60 60 60 60 60 59 59 58 57 57 57 56 56 56 56 57 57 57 58 59 60 61
41 43 44 46 48 49 50 51 53 54 55 56 57 58 58 58 58 58 57 56 56 56 56 56 55 54 53 53 53 52 52 51 51 52 53 53 54 56
42 44 47 48 50 51 52 53 54 55 56 56 56 56 56 55 55 54 53 53 53 52 51 51 51 51 50 50 49 48 47 45 45 45 46 46 48 49
45 47 48 50 51 52 53 54 54 55 55 55 54 53 52 52 51 51 51 51 50 49 48 47 46 45 44 44 43 42 40 39 39 39 40 40 40 41
47 48 49 51 52 53 53 53 53 53 52 52 51 50 50 49 49 49 48 48 46 45 44 43 41 40 38 36 37 37 36 35 34 33 33 33 34 35
48 49 51 52 52 51 51 51 50 50 49 48 48 47 46 46 45 45 45 44 43 41 40 39 37 36 33 32 31 32 33 31 30 29 28 28 29 30
50 51 51 51 50 50 49 48 48 47 47 46 46 45 44 44 43 43 42 40 38 36 35 34 34 32 30 29 28 28 29 29 27 26 25 25 26 26
50 50 49 49 48 47 46 46 46 45 45 44 43 43 42 42 40 39 38 36 34 33 32 31 31 30 29 28 27 26 26 26 25 25 24 24 23 23
48 47 47 46 45 44 44 43 43 42 42 42 41 41 40 38 37 36 35 33 32 31 30 29 28 28 28 27 26 25 24 24 24 24 24 24 23 22